This is the latest recevied weather packets stored in our database for station/object JA1KWV-11. If no packets are shown the sender has not sent any weather packets the latest 10 day(s).
| Time | Temp. | Humidity | Pressure | Rain* | Wind** | Luminosity | Snow |
|---|---|---|---|---|---|---|---|
| 1787389296 | 31.11° C | 75% | 1014.2 hPa | 0 mm | - | - | - |
| 1787388816 | 31.11° C | 76% | 1014.1 hPa | 0 mm | - | - | - |
| 1787388336 | 31.11° C | 77% | 1014 hPa | 0 mm | - | - | - |
| 1787387855 | 31.11° C | 76% | 1014.1 hPa | 0 mm | - | - | - |
| 1787387375 | 31.11° C | 79% | 1014.1 hPa | 0 mm | - | - | - |
| 1787386895 | 31.11° C | 79% | 1014.2 hPa | 0 mm | - | - | - |
| 1787386415 | 31.11° C | 81% | 1013.9 hPa | 0 mm | - | - | - |
| 1787385935 | 31.11° C | 82% | 1013.8 hPa | 0 mm | - | - | - |
| 1787385454 | 31.11° C | 82% | 1014.2 hPa | 0 mm | - | - | - |
| 1787384974 | 31.11° C | 83% | 1014.6 hPa | 0 mm | - | - | - |
| 1787384494 | 31.11° C | 82% | 1014.2 hPa | 0 mm | - | - | - |
| 1787384014 | 31.11° C | 82% | 1013.6 hPa | 0 mm | - | - | - |
| 1787383534 | 31.11° C | 83% | 1012.9 hPa | 0 mm | - | - | - |
| 1787383053 | 31.11° C | 82% | 1012.7 hPa | 0 mm | - | - | - |
| 1787382573 | 31.11° C | 83% | 1012.7 hPa | 0 mm | - | - | - |
| 1787382093 | 31.11° C | 83% | 1012.3 hPa | 0 mm | - | - | - |
| 1787381613 | 31.11° C | 82% | 1012.2 hPa | 0 mm | - | - | - |
| 1787381132 | 31.11° C | 82% | 1012.2 hPa | 0 mm | - | - | - |
| 1787380652 | 31.11° C | 81% | 1012 hPa | 0 mm | - | - | - |
| 1787380172 | 31.11° C | 82% | 1012.1 hPa | 0 mm | - | - | - |
| 1787379692 | 31.11° C | 80% | 1011.9 hPa | 0 mm | - | - | - |
| 1787379211 | 31.11° C | 82% | 1012 hPa | 0 mm | - | - | - |
| 1787378731 | 31.11° C | 81% | 1012 hPa | 0 mm | - | - | - |
| 1787378251 | 31.11° C | 80% | 1012 hPa | 0 mm | - | - | - |
| 1787377771 | 31.11° C | 80% | 1012 hPa | 0 mm | - | - | - |
* Rain since midnight (hover to see other rain measurements)
** Current wind speed in m/s (hover to see current wind gust speed)